Flag for Bermuda Weather past 2 weeks in Hamilton, Bermuda

Now
82 °F

Scattered showers. Broken clouds.


Feels Like: 89 °F
Forecast: N/A
Wind: 12 mph from Southwest

Location: Bermuda

Current Time: Sep 30, 2014 at 6:00:37 PM

Latest Report: Sep 30, 2014 at 4:55 PM


Visibility: N/A

Pressure: 29.83 "Hg

Humidity: 79%

Dew point: 75 °F

Location of HamiltonLocation

Historic Weather in Hamilton — Graph

°F

Hamilton temperature yesterday

Maximum temperature yesterday: 81 °F (at 11:55 AM)
Minimum temperature yesterday: 70 °F (at 3:55 AM)
Average temperature yesterday: 76 °F

Past Weeks' High & Low Weather Summary

 TemperatureHumidityPressure
High86 °F (Sep 23, 2:55 PM)100% (Sep 17, 1:55 AM)30.30 "Hg (Sep 17, 1:55 AM)
Low70 °F (Sep 29, 3:55 AM)70% (Sep 26, 1:55 PM)29.80 "Hg (Sep 30, 4:55 AM)
Average80 °F84%30.03 "Hg
* Reported Sep 15 4:55 PM — Sep 30 4:55 PM, Hamilton, Weather by CustomWeather, © 2014

Note: Actual official high and low records may vary slightly from our data, if they occured in-between our weather recording intervals... More about our weather records

Advertising

Hamilton weather history for previous 24 hours

 ConditionsComfort  
Time TempWeatherWind HumidityBarometerVisibility
4:55 PM
Sep 30
82 °FScattered showers. Broken clouds.12 mph79%29.83 "HgN/A
3:55 PM82 °FScattered clouds.16 mph74%29.83 "HgN/A
2:55 PM82 °FBroken clouds.18 mph74%29.83 "HgN/A
1:55 PM82 °FBroken clouds.17 mph74%29.83 "HgN/A
12:55 PM84 °FScattered clouds.20 mph70%29.86 "HgN/A
11:55 AM79 °FScattered showers. Broken clouds.18 mph84%29.86 "HgN/A
10:55 AM82 °FBroken clouds.17 mph79%29.86 "HgN/A
9:55 AM81 °FBroken clouds.17 mph79%29.86 "HgN/A
8:55 AM79 °FBroken clouds.15 mph89%29.86 "HgN/A
7:55 AM79 °FPartly cloudy.18 mph84%29.83 "HgN/A
6:55 AM77 °FPassing clouds.21 mph89%29.83 "HgN/A
5:55 AM77 °FPassing clouds.23 mph83%29.80 "HgN/A
4:55 AM77 °FScattered showers. Partly cloudy.25 mph89%29.80 "HgN/A
3:55 AM77 °FScattered showers. Passing clouds.23 mph89%29.83 "HgN/A
2:55 AM75 °FScattered showers. Overcast.10 mph94%29.83 "HgN/A
2:03 AM72 °FSprinkles. Overcast.20 mph88%29.86 "HgN/A
1:55 AM72 °FRain showers. Overcast.17 mph88%29.86 "Hg2 mi
12:55 AM75 °FThunderstorms. Mostly cloudy.23 mph100%29.83 "HgN/A
11:55 PM
Sep 29
75 °FScattered showers. Partly cloudy.18 mph94%29.83 "HgN/A
11:04 PM75 °FSprinkles. Overcast.15 mph94%29.83 "HgN/A
10:55 PM75 °FRain showers. Overcast.13 mph94%29.83 "Hg3 mi
9:55 PM79 °FScattered showers. Passing clouds.22 mph79%29.83 "HgN/A
8:55 PM79 °FScattered showers. Partly cloudy.23 mph79%29.83 "HgN/A
7:55 PM77 °FScattered showers. Broken clouds.16 mph83%29.83 "HgN/A
6:55 PM77 °FSprinkles. Partly sunny.17 mph79%29.83 "HgN/A
Weather by CustomWeather, © 2014

See weather overviewHow to use our weather pages